This is the latest recevied weather packets stored in our database for station/object KU4DD. If no packets are shown the sender has not sent any weather packets the latest 10 day(s).
| Time | Temp. | Humidity | Pressure | Rain* | Wind** | Luminosity | Snow |
|---|---|---|---|---|---|---|---|
| 1787831774 | 22.22° C | 98% | 1016.6 hPa | 0 mm | - | 49 W/m² | - |
| 1787831149 | 22.22° C | 98% | 1016.6 hPa | 0 mm | - | 39 W/m² | - |
| 1787830831 | 22.22° C | 98% | 1016.3 hPa | 0 mm | - | 58 W/m² | - |
| 1787829292 | 21.67° C | 97% | 1016.3 hPa | 0 mm | - | 47 W/m² | - |
| 1787828657 | 21.67° C | 97% | 1016.3 hPa | 0 mm | - | 21 W/m² | - |
| 1787828029 | 21.67° C | 97% | 1016.3 hPa | 0 mm | - | 7 W/m² | - |
| 1787827714 | 21.67° C | 97% | 1015.9 hPa | 0 mm | - | 5 W/m² | - |
| 1787827373 | 21.67° C | 97% | 1016.3 hPa | 0 mm | - | 0 W/m² | - |
| 1787824284 | 21.11° C | 97% | 1016.3 hPa | 0 mm | - | 0 W/m² | - |
| 1787823349 | 21.67° C | 97% | 1016.3 hPa | 0 mm | - | 0 W/m² | - |
| 1787822112 | 21.11° C | 96% | 1015.9 hPa | 0 mm | - | 0 W/m² | - |
| 1787821179 | 21.11° C | 96% | 1015.6 hPa | 0 mm | - | 0 W/m² | - |
| 1787819632 | 21.11° C | 96% | 1015.9 hPa | 0 mm | - | 0 W/m² | - |
| 1787816556 | 21.67° C | 95% | 1015.9 hPa | 0 mm | - | 0 W/m² | - |
| 1787816230 | 21.67° C | 95% | 1015.9 hPa | 0 mm | - | 0 W/m² | - |
| 1787814063 | 21.67° C | 95% | 1016.3 hPa | 0 mm | - | 0 W/m² | - |
| 1787813142 | 21.67° C | 94% | 1016.3 hPa | 0 mm | - | 0 W/m² | - |
| 1787810675 | 22.22° C | 94% | 1016.6 hPa | 0 mm | - | 0 W/m² | - |
| 1787810059 | 22.22° C | 93% | 1016.6 hPa | 0 mm | - | 0 W/m² | - |
| 1787808182 | 22.22° C | 93% | 1016.9 hPa | 0 mm | - | 0 W/m² | - |
| 1787802636 | 23.33° C | 87% | 1016.9 hPa | 0 mm | - | 0 W/m² | - |
| 1787801697 | 24.44° C | 85% | 1016.9 hPa | 0 mm | - | 0 W/m² | - |
| 1787801373 | 24.44° C | 85% | 1016.9 hPa | 0 mm | - | 0 W/m² | - |
| 1787801049 | 24.44° C | 85% | 1016.9 hPa | 0 mm | - | 0 W/m² | - |
| 1787800108 | 24.44° C | 83% | 1016.9 hPa | 0 mm | - | 0 W/m² | - |
* Rain latest hour (hover to see other rain measurements)
** Current wind speed in m/s (hover to see current wind gust speed)